contact:dominique.lefevre@mio.osupytheas.fr, maurice.libes@osupytheas.fr, didier.mallarino@osupytheas.fr
Project:EMSO http://www.emso-fr.org/EMSO-France
Depth: 2436.0 m
Title:EMSO Ligure Ouest : Data MII capteur MICROCAT
DateTime_Computer,Latitude,Longitude,Temperature,Conductivity,Pressure,DateTime_Instrument
DateTime_Computer,Latitude,Longitude,degC,S m-1,dbar,DateTime_Instrument
2020-10-21T00:02:41Z,42.805,6.029,13.2985,4.60003,2470.227,2020-10-21T02:03:35Z
2020-10-21T00:05:44Z,42.805,6.029,13.2993,4.60010,2470.24,2020-10-21T02:06:39Z
2020-10-21T00:08:47Z,42.805,6.029,13.2993,4.60021,2470.217,2020-10-21T02:09:42Z
2020-10-21T00:11:50Z,42.805,6.029,13.2988,4.59996,2470.24,2020-10-21T02:12:45Z
2020-10-21T00:14:53Z,42.805,6.029,13.2992,4.59999,2470.203,2020-10-21T02:15:48Z
2020-10-21T00:17:57Z,42.805,6.029,13.2990,4.59997,2470.203,2020-10-21T02:18:51Z
2020-10-21T00:21:00Z,42.805,6.029,13.2995,4.60014,2470.24,2020-10-21T02:21:54Z
2020-10-21T00:24:03Z,42.805,6.029,13.2996,4.60021,2470.217,2020-10-21T02:24:57Z
2020-10-21T00:27:06Z,42.805,6.029,13.2998,4.60014,2470.171,2020-10-21T02:28:00Z
2020-10-21T00:30:09Z,42.805,6.029,13.2989,4.60027,2470.194,2020-10-21T02:31:04Z
2020-10-21T00:33:12Z,42.805,6.029,13.2996,4.60011,2470.18,2020-10-21T02:34:07Z
2020-10-21T00:36:15Z,42.805,6.029,13.2989,4.60003,2470.213,2020-10-21T02:37:10Z
2020-10-21T00:39:18Z,42.805,6.029,13.2986,4.60003,2470.217,2020-10-21T02:40:13Z
2020-10-21T00:42:21Z,42.805,6.029,13.2996,4.60013,2470.203,2020-10-21T02:43:16Z
2020-10-21T00:45:25Z,42.805,6.029,13.2991,4.60015,2470.217,2020-10-21T02:46:19Z
2020-10-21T00:48:28Z,42.805,6.029,13.2995,4.60033,2470.217,2020-10-21T02:49:22Z
2020-10-21T00:51:31Z,42.805,6.029,13.2990,4.60003,2470.194,2020-10-21T02:52:25Z
2020-10-21T00:54:34Z,42.805,6.029,13.2986,4.60001,2470.203,2020-10-21T02:55:29Z
2020-10-21T00:57:37Z,42.805,6.029,13.2990,4.60017,2470.203,2020-10-21T02:58:32Z
2020-10-21T01:00:40Z,42.805,6.029,13.2996,4.60020,2470.217,2020-10-21T03:01:35Z
2020-10-21T01:03:43Z,42.805,6.029,13.2988,4.60010,2470.18,2020-10-21T03:04:38Z
2020-10-21T01:06:46Z,42.805,6.029,13.2982,4.59998,2470.171,2020-10-21T03:07:41Z
2020-10-21T01:09:50Z,42.805,6.029,13.2985,4.60009,2470.156,2020-10-21T03:10:44Z
2020-10-21T01:12:53Z,42.805,6.029,13.2982,4.60002,2470.194,2020-10-21T03:13:47Z
2020-10-21T01:15:56Z,42.805,6.029,13.2984,4.59991,2470.203,2020-10-21T03:16:50Z
2020-10-21T01:18:59Z,42.805,6.029,13.2985,4.60001,2470.18,2020-10-21T03:19:53Z
2020-10-21T01:22:02Z,42.805,6.029,13.2990,4.60006,2470.171,2020-10-21T03:22:57Z
2020-10-21T01:25:05Z,42.805,6.029,13.2982,4.59999,2470.194,2020-10-21T03:26:00Z
2020-10-21T01:28:08Z,42.805,6.029,13.2982,4.59997,2470.18,2020-10-21T03:29:03Z
2020-10-21T01:31:11Z,42.805,6.029,13.2985,4.60009,2470.18,2020-10-21T03:32:06Z
2020-10-21T01:34:15Z,42.805,6.029,13.2982,4.60003,2470.171,2020-10-21T03:35:09Z
2020-10-21T01:37:18Z,42.805,6.029,13.2985,4.60005,2470.171,2020-10-21T03:38:12Z
2020-10-21T01:40:21Z,42.805,6.029,13.2979,4.60000,2470.194,2020-10-21T03:41:15Z
2020-10-21T01:43:24Z,42.805,6.029,13.2984,4.60001,2470.18,2020-10-21T03:44:18Z
2020-10-21T01:46:27Z,42.805,6.029,13.2987,4.60005,2470.203,2020-10-21T03:47:22Z
2020-10-21T01:49:30Z,42.805,6.029,13.2985,4.60000,2470.156,2020-10-21T03:50:25Z
2020-10-21T01:52:33Z,42.805,6.029,13.2988,4.60002,2470.171,2020-10-21T03:53:28Z
2020-10-21T01:55:36Z,42.805,6.029,13.2986,4.60009,2470.156,2020-10-21T03:56:31Z
2020-10-21T01:58:40Z,42.805,6.029,13.2984,4.60004,2470.156,2020-10-21T03:59:34Z
2020-10-21T02:01:43Z,42.805,6.029,13.2977,4.59999,2470.119,2020-10-21T04:02:37Z
2020-10-21T02:04:46Z,42.805,6.029,13.2984,4.59996,2470.156,2020-10-21T04:05:40Z
2020-10-21T02:07:49Z,42.805,6.029,13.2983,4.60002,2470.203,2020-10-21T04:08:43Z
2020-10-21T02:10:52Z,42.805,6.029,13.2986,4.60003,2470.171,2020-10-21T04:11:47Z
2020-10-21T02:13:55Z,42.805,6.029,13.2985,4.59996,2470.133,2020-10-21T04:14:50Z
2020-10-21T02:16:58Z,42.805,6.029,13.2983,4.60003,2470.156,2020-10-21T04:17:53Z
2020-10-21T02:20:01Z,42.805,6.029,13.2986,4.60003,2470.156,2020-10-21T04:20:56Z
2020-10-21T02:23:05Z,42.805,6.029,13.2983,4.60000,2470.18,2020-10-21T04:23:59Z
2020-10-21T02:26:08Z,42.805,6.029,13.2982,4.60009,2470.194,2020-10-21T04:27:02Z
2020-10-21T02:29:11Z,42.805,6.029,13.2982,4.60024,2470.18,2020-10-21T04:30:05Z
2020-10-21T02:32:14Z,42.805,6.029,13.2982,4.60001,2470.171,2020-10-21T04:33:08Z
2020-10-21T02:35:17Z,42.805,6.029,13.2981,4.59989,2470.171,2020-10-21T04:36:11Z
2020-10-21T02:38:20Z,42.805,6.029,13.2984,4.59991,2470.133,2020-10-21T04:39:15Z
2020-10-21T02:41:23Z,42.805,6.029,13.2985,4.59999,2470.171,2020-10-21T04:42:18Z
2020-10-21T02:44:26Z,42.805,6.029,13.2983,4.59997,2470.156,2020-10-21T04:45:21Z
2020-10-21T02:47:29Z,42.805,6.029,13.2988,4.60001,2470.133,2020-10-21T04:48:24Z
2020-10-21T02:50:33Z,42.805,6.029,13.2984,4.60017,2470.147,2020-10-21T04:51:27Z
2020-10-21T02:53:36Z,42.805,6.029,13.2988,4.60002,2470.133,2020-10-21T04:54:30Z
2020-10-21T02:56:39Z,42.805,6.029,13.2983,4.59997,2470.156,2020-10-21T04:57:33Z
2020-10-21T02:59:42Z,42.805,6.029,13.2990,4.60021,2470.133,2020-10-21T05:00:36Z
2020-10-21T03:02:45Z,42.805,6.029,13.2982,4.59999,2470.147,2020-10-21T05:03:40Z
2020-10-21T03:05:48Z,42.805,6.029,13.2988,4.60004,2470.156,2020-10-21T05:06:43Z
2020-10-21T03:08:51Z,42.805,6.029,13.2982,4.60000,2470.133,2020-10-21T05:09:46Z
2020-10-21T03:11:54Z,42.805,6.029,13.2986,4.59999,2470.133,2020-10-21T05:12:49Z
2020-10-21T03:14:58Z,42.805,6.029,13.2983,4.59999,2470.171,2020-10-21T05:15:52Z
2020-10-21T03:18:01Z,42.805,6.029,13.2983,4.59994,2470.133,2020-10-21T05:18:55Z
2020-10-21T03:21:04Z,42.805,6.029,13.2980,4.59995,2470.147,2020-10-21T05:21:58Z
2020-10-21T03:24:07Z,42.805,6.029,13.2986,4.60003,2470.133,2020-10-21T05:25:01Z
2020-10-21T03:27:10Z,42.805,6.029,13.2982,4.59989,2470.147,2020-10-21T05:28:05Z
2020-10-21T03:30:13Z,42.805,6.029,13.2986,4.59997,2470.147,2020-10-21T05:31:08Z
2020-10-21T03:33:16Z,42.805,6.029,13.2986,4.59986,2470.156,2020-10-21T05:34:11Z
2020-10-21T03:36:19Z,42.805,6.029,13.2983,4.60004,2470.133,2020-10-21T05:37:14Z
2020-10-21T03:39:23Z,42.805,6.029,13.2980,4.60002,2470.156,2020-10-21T05:40:17Z
2020-10-21T03:42:26Z,42.805,6.029,13.2983,4.60000,2470.11,2020-10-21T05:43:20Z
2020-10-21T03:45:29Z,42.805,6.029,13.2982,4.60003,2470.147,2020-10-21T05:46:23Z
2020-10-21T03:48:32Z,42.805,6.029,13.2980,4.59988,2470.156,2020-10-21T05:49:26Z
2020-10-21T03:51:35Z,42.805,6.029,13.2982,4.60000,2470.156,2020-10-21T05:52:30Z
2020-10-21T03:54:38Z,42.805,6.029,13.2986,4.59996,2470.156,2020-10-21T05:55:33Z
2020-10-21T03:57:41Z,42.805,6.029,13.2982,4.59996,2470.171,2020-10-21T05:58:36Z
2020-10-21T04:00:44Z,42.805,6.029,13.2983,4.59991,2470.156,2020-10-21T06:01:39Z
2020-10-21T04:03:48Z,42.805,6.029,13.2979,4.59989,2470.11,2020-10-21T06:04:42Z
2020-10-21T04:06:51Z,42.805,6.029,13.2982,4.59998,2470.18,2020-10-21T06:07:45Z
2020-10-21T04:09:54Z,42.805,6.029,13.2980,4.60002,2470.11,2020-10-21T06:10:48Z
2020-10-21T04:12:57Z,42.805,6.029,13.2979,4.59995,2470.133,2020-10-21T06:13:51Z
2020-10-21T04:16:00Z,42.805,6.029,13.2979,4.60003,2470.133,2020-10-21T06:16:55Z
2020-10-21T04:19:03Z,42.805,6.029,13.2997,4.60011,2470.133,2020-10-21T06:19:58Z
2020-10-21T04:22:06Z,42.805,6.029,13.2986,4.59999,2470.171,2020-10-21T06:23:01Z
2020-10-21T04:25:09Z,42.805,6.029,13.2991,4.60011,2470.147,2020-10-21T06:26:04Z
2020-10-21T04:28:12Z,42.805,6.029,13.2985,4.60006,2470.133,2020-10-21T06:29:07Z
2020-10-21T04:31:16Z,42.805,6.029,13.2980,4.60001,2470.171,2020-10-21T06:32:10Z
2020-10-21T04:34:19Z,42.805,6.029,13.2983,4.60006,2470.133,2020-10-21T06:35:13Z
2020-10-21T04:37:22Z,42.805,6.029,13.2979,4.60007,2470.147,2020-10-21T06:38:16Z
2020-10-21T04:40:25Z,42.805,6.029,13.2980,4.60005,2470.156,2020-10-21T06:41:19Z
2020-10-21T04:43:28Z,42.805,6.029,13.2990,4.60004,2470.124,2020-10-21T06:44:23Z
2020-10-21T04:46:31Z,42.805,6.029,13.2983,4.60001,2470.11,2020-10-21T06:47:26Z
2020-10-21T04:49:34Z,42.805,6.029,13.2982,4.59997,2470.124,2020-10-21T06:50:29Z
2020-10-21T04:52:37Z,42.805,6.029,13.2991,4.59996,2470.133,2020-10-21T06:53:32Z
2020-10-21T04:55:41Z,42.805,6.029,13.2985,4.60002,2470.133,2020-10-21T06:56:35Z
2020-10-21T04:58:44Z,42.805,6.029,13.2976,4.59994,2470.147,2020-10-21T06:59:38Z
2020-10-21T05:01:47Z,42.805,6.029,13.2986,4.60011,2470.11,2020-10-21T07:02:41Z
2020-10-21T05:04:50Z,42.805,6.029,13.2979,4.59998,2470.133,2020-10-21T07:05:44Z
2020-10-21T05:07:53Z,42.805,6.029,13.2990,4.60008,2470.11,2020-10-21T07:08:48Z
2020-10-21T05:10:56Z,42.805,6.029,13.2983,4.60008,2470.133,2020-10-21T07:11:51Z
2020-10-21T05:13:59Z,42.805,6.029,13.2990,4.59999,2470.156,2020-10-21T07:14:54Z
2020-10-21T05:17:02Z,42.805,6.029,13.2987,4.60000,2470.147,2020-10-21T07:17:57Z
2020-10-21T05:20:06Z,42.805,6.029,13.2983,4.60001,2470.11,2020-10-21T07:21:00Z
2020-10-21T05:23:09Z,42.805,6.029,13.2983,4.59996,2470.11,2020-10-21T07:24:03Z
2020-10-21T05:26:12Z,42.805,6.029,13.2977,4.59998,2470.133,2020-10-21T07:27:06Z
2020-10-21T05:29:15Z,42.805,6.029,13.2986,4.60006,2470.171,2020-10-21T07:30:09Z
2020-10-21T05:32:18Z,42.805,6.029,13.2984,4.59994,2470.133,2020-10-21T07:33:13Z
2020-10-21T05:35:21Z,42.805,6.029,13.2985,4.60007,2470.133,2020-10-21T07:36:16Z
2020-10-21T05:38:24Z,42.805,6.029,13.2988,4.60001,2470.171,2020-10-21T07:39:19Z
2020-10-21T05:41:27Z,42.805,6.029,13.2986,4.60012,2470.147,2020-10-21T07:42:22Z
2020-10-21T05:44:31Z,42.805,6.029,13.2983,4.60001,2470.133,2020-10-21T07:45:25Z
2020-10-21T05:47:34Z,42.805,6.029,13.2985,4.60011,2470.147,2020-10-21T07:48:28Z
2020-10-21T05:50:37Z,42.805,6.029,13.2991,4.60011,2470.156,2020-10-21T07:51:31Z
2020-10-21T05:53:40Z,42.805,6.029,13.2980,4.60005,2470.156,2020-10-21T07:54:34Z
2020-10-21T05:56:43Z,42.805,6.029,13.2985,4.60003,2470.171,2020-10-21T07:57:38Z
2020-10-21T05:59:46Z,42.805,6.029,13.2986,4.59990,2470.133,2020-10-21T08:00:41Z
2020-10-21T06:02:49Z,42.805,6.029,13.2986,4.60016,2470.133,2020-10-21T08:03:44Z
2020-10-21T06:05:52Z,42.805,6.029,13.2986,4.59997,2470.171,2020-10-21T08:06:47Z
2020-10-21T06:08:56Z,42.805,6.029,13.2990,4.60012,2470.194,2020-10-21T08:09:50Z
2020-10-21T06:11:59Z,42.805,6.029,13.2990,4.60009,2470.18,2020-10-21T08:12:53Z
2020-10-21T06:15:02Z,42.805,6.029,13.2981,4.60019,2470.156,2020-10-21T08:15:56Z
2020-10-21T06:18:05Z,42.805,6.029,13.2997,4.60023,2470.171,2020-10-21T08:18:59Z
2020-10-21T06:21:08Z,42.805,6.029,13.2983,4.60022,2470.171,2020-10-21T08:22:03Z
2020-10-21T06:24:11Z,42.805,6.029,13.2987,4.60008,2470.171,2020-10-21T08:25:06Z
2020-10-21T06:27:14Z,42.805,6.029,13.2991,4.60003,2470.156,2020-10-21T08:28:09Z
2020-10-21T06:30:17Z,42.805,6.029,13.2982,4.60009,2470.18,2020-10-21T08:31:12Z
2020-10-21T06:33:21Z,42.805,6.029,13.2982,4.60011,2470.194,2020-10-21T08:34:15Z
2020-10-21T06:36:24Z,42.805,6.029,13.2993,4.60014,2470.18,2020-10-21T08:37:18Z
2020-10-21T06:39:27Z,42.805,6.029,13.2987,4.60009,2470.203,2020-10-21T08:40:21Z
2020-10-21T06:42:30Z,42.805,6.029,13.2977,4.60000,2470.217,2020-10-21T08:43:24Z
2020-10-21T06:45:33Z,42.805,6.029,13.2986,4.60003,2470.18,2020-10-21T08:46:28Z
2020-10-21T06:48:36Z,42.805,6.029,13.2992,4.60016,2470.217,2020-10-21T08:49:31Z
2020-10-21T06:51:39Z,42.805,6.029,13.2979,4.60017,2470.227,2020-10-21T08:52:34Z
2020-10-21T06:54:42Z,42.805,6.029,13.2982,4.59997,2470.217,2020-10-21T08:55:37Z
2020-10-21T06:57:46Z,42.805,6.029,13.2980,4.60016,2470.217,2020-10-21T08:58:40Z
2020-10-21T07:00:49Z,42.805,6.029,13.2983,4.60005,2470.203,2020-10-21T09:01:43Z
2020-10-21T07:03:52Z,42.805,6.029,13.2979,4.60002,2470.203,2020-10-21T09:04:46Z
2020-10-21T07:06:55Z,42.805,6.029,13.2982,4.60008,2470.227,2020-10-21T09:07:49Z
2020-10-21T07:09:58Z,42.805,6.029,13.2995,4.60017,2470.264,2020-10-21T09:10:52Z
2020-10-21T07:13:01Z,42.805,6.029,13.2987,4.60021,2470.25,2020-10-21T09:13:56Z
2020-10-21T07:16:04Z,42.805,6.029,13.2990,4.60016,2470.227,2020-10-21T09:16:59Z
2020-10-21T07:19:07Z,42.805,6.029,13.2985,4.60020,2470.24,2020-10-21T09:20:02Z
2020-10-21T07:22:10Z,42.805,6.029,13.2991,4.60025,2470.24,2020-10-21T09:23:05Z
2020-10-21T07:25:14Z,42.805,6.029,13.2993,4.60003,2470.227,2020-10-21T09:26:08Z
2020-10-21T07:28:17Z,42.805,6.029,13.2988,4.60011,2470.264,2020-10-21T09:29:11Z
2020-10-21T07:31:20Z,42.805,6.029,13.2991,4.60036,2470.264,2020-10-21T09:32:14Z
2020-10-21T07:34:23Z,42.805,6.029,13.2987,4.60019,2470.273,2020-10-21T09:35:17Z
2020-10-21T07:37:26Z,42.805,6.029,13.2987,4.60003,2470.287,2020-10-21T09:38:21Z
2020-10-21T07:40:29Z,42.805,6.029,13.2978,4.59996,2470.24,2020-10-21T09:41:24Z
2020-10-21T07:43:32Z,42.805,6.029,13.2991,4.60012,2470.273,2020-10-21T09:44:27Z
2020-10-21T07:46:35Z,42.805,6.029,13.2986,4.60016,2470.25,2020-10-21T09:47:30Z
2020-10-21T07:49:39Z,42.805,6.029,13.2992,4.60016,2470.25,2020-10-21T09:50:33Z
2020-10-21T07:52:42Z,42.805,6.029,13.2980,4.60003,2470.287,2020-10-21T09:53:36Z
2020-10-21T07:55:45Z,42.805,6.029,13.2986,4.60010,2470.31,2020-10-21T09:56:39Z
2020-10-21T07:58:48Z,42.805,6.029,13.2983,4.60005,2470.297,2020-10-21T09:59:42Z
2020-10-21T08:01:51Z,42.805,6.029,13.2994,4.60004,2470.297,2020-10-21T10:02:46Z
2020-10-21T08:04:54Z,42.805,6.029,13.2980,4.59996,2470.31,2020-10-21T10:05:49Z
2020-10-21T08:07:57Z,42.805,6.029,13.2990,4.60014,2470.273,2020-10-21T10:08:52Z
2020-10-21T08:11:00Z,42.805,6.029,13.2984,4.60005,2470.31,2020-10-21T10:11:55Z
2020-10-21T08:14:04Z,42.805,6.029,13.2987,4.60020,2470.297,2020-10-21T10:14:58Z
2020-10-21T08:17:07Z,42.805,6.029,13.2986,4.60021,2470.31,2020-10-21T10:18:01Z
2020-10-21T08:20:10Z,42.805,6.029,13.2999,4.60006,2470.25,2020-10-21T10:21:04Z
2020-10-21T08:23:13Z,42.805,6.029,13.2986,4.60013,2470.31,2020-10-21T10:24:08Z
2020-10-21T08:26:16Z,42.805,6.029,13.2983,4.60001,2470.31,2020-10-21T10:27:11Z
2020-10-21T08:29:19Z,42.805,6.029,13.2986,4.60006,2470.32,2020-10-21T10:30:14Z
2020-10-21T08:32:22Z,42.805,6.029,13.2982,4.60002,2470.334,2020-10-21T10:33:17Z
2020-10-21T08:35:26Z,42.805,6.029,13.2981,4.60014,2470.32,2020-10-21T10:36:20Z
2020-10-21T08:38:29Z,42.805,6.029,13.2982,4.59992,2470.32,2020-10-21T10:39:23Z
2020-10-21T08:41:32Z,42.805,6.029,13.2984,4.60014,2470.297,2020-10-21T10:42:26Z
2020-10-21T08:44:35Z,42.805,6.029,13.2996,4.60008,2470.31,2020-10-21T10:45:29Z
2020-10-21T08:47:38Z,42.805,6.029,13.3005,4.60019,2470.32,2020-10-21T10:48:33Z
2020-10-21T08:50:41Z,42.805,6.029,13.2982,4.60005,2470.32,2020-10-21T10:51:36Z
2020-10-21T08:53:44Z,42.805,6.029,13.2987,4.59996,2470.334,2020-10-21T10:54:39Z
2020-10-21T08:56:47Z,42.805,6.029,13.2979,4.59998,2470.334,2020-10-21T10:57:42Z
2020-10-21T08:59:51Z,42.805,6.029,13.2985,4.60003,2470.343,2020-10-21T11:00:45Z
2020-10-21T09:02:54Z,42.805,6.029,13.2984,4.60007,2470.334,2020-10-21T11:03:48Z
2020-10-21T09:05:57Z,42.805,6.029,13.2979,4.60002,2470.32,2020-10-21T11:06:51Z
2020-10-21T09:09:00Z,42.805,6.029,13.2985,4.59999,2470.334,2020-10-21T11:09:54Z
2020-10-21T09:12:03Z,42.805,6.029,13.2990,4.60016,2470.343,2020-10-21T11:12:58Z
2020-10-21T09:15:06Z,42.805,6.029,13.2986,4.60026,2470.334,2020-10-21T11:16:01Z
2020-10-21T09:18:09Z,42.805,6.029,13.2986,4.60001,2470.334,2020-10-21T11:19:04Z
2020-10-21T09:21:12Z,42.805,6.029,13.2994,4.60028,2470.334,2020-10-21T11:22:07Z
2020-10-21T09:24:16Z,42.805,6.029,13.2991,4.60014,2470.366,2020-10-21T11:25:10Z
2020-10-21T09:27:19Z,42.805,6.029,13.2992,4.60003,2470.38,2020-10-21T11:28:13Z
2020-10-21T09:30:22Z,42.805,6.029,13.2985,4.60007,2470.32,2020-10-21T11:31:16Z
2020-10-21T09:33:25Z,42.805,6.029,13.2983,4.60010,2470.343,2020-10-21T11:34:19Z
2020-10-21T09:36:28Z,42.805,6.029,13.2992,4.60009,2470.343,2020-10-21T11:37:23Z
2020-10-21T09:39:31Z,42.805,6.029,13.2988,4.60011,2470.343,2020-10-21T11:40:26Z
2020-10-21T09:42:34Z,42.805,6.029,13.2986,4.60009,2470.357,2020-10-21T11:43:29Z
2020-10-21T09:45:37Z,42.805,6.029,13.2987,4.60012,2470.366,2020-10-21T11:46:32Z
2020-10-21T09:48:41Z,42.805,6.029,13.2983,4.60000,2470.343,2020-10-21T11:49:35Z
2020-10-21T09:51:44Z,42.805,6.029,13.2990,4.60007,2470.38,2020-10-21T11:52:38Z
2020-10-21T09:54:47Z,42.805,6.029,13.2994,4.60008,2470.38,2020-10-21T11:55:41Z
2020-10-21T09:57:50Z,42.805,6.029,13.2988,4.60013,2470.357,2020-10-21T11:58:45Z
2020-10-21T10:00:53Z,42.805,6.029,13.2985,4.60014,2470.343,2020-10-21T12:01:48Z
2020-10-21T10:03:56Z,42.805,6.029,13.2991,4.60016,2470.343,2020-10-21T12:04:51Z
2020-10-21T10:06:59Z,42.805,6.029,13.2986,4.60008,2470.357,2020-10-21T12:07:54Z
2020-10-21T10:10:02Z,42.805,6.029,13.2991,4.60010,2470.343,2020-10-21T12:10:57Z
2020-10-21T10:13:06Z,42.805,6.029,13.2982,4.59992,2470.343,2020-10-21T12:14:00Z
2020-10-21T10:16:09Z,42.805,6.029,13.2983,4.59996,2470.38,2020-10-21T12:17:03Z
2020-10-21T10:19:12Z,42.805,6.029,13.2984,4.60000,2470.366,2020-10-21T12:20:06Z
2020-10-21T10:22:15Z,42.805,6.029,13.2981,4.59998,2470.38,2020-10-21T12:23:10Z
2020-10-21T10:25:18Z,42.805,6.029,13.2983,4.60001,2470.366,2020-10-21T12:26:13Z
2020-10-21T10:28:21Z,42.805,6.029,13.2996,4.60013,2470.357,2020-10-21T12:29:16Z
2020-10-21T10:31:24Z,42.805,6.029,13.2983,4.59999,2470.357,2020-10-21T12:32:19Z
2020-10-21T10:34:27Z,42.805,6.029,13.2979,4.60005,2470.404,2020-10-21T12:35:22Z
2020-10-21T10:37:31Z,42.805,6.029,13.2980,4.60003,2470.366,2020-10-21T12:38:25Z
2020-10-21T10:40:34Z,42.805,6.029,13.2986,4.60005,2470.357,2020-10-21T12:41:28Z
2020-10-21T10:43:37Z,42.805,6.029,13.2982,4.60014,2470.343,2020-10-21T12:44:31Z
2020-10-21T10:46:40Z,42.805,6.029,13.2984,4.60002,2470.38,2020-10-21T12:47:35Z
2020-10-21T10:49:43Z,42.805,6.029,13.2985,4.60021,2470.38,2020-10-21T12:50:38Z
2020-10-21T10:52:46Z,42.805,6.029,13.2980,4.59996,2470.38,2020-10-21T12:53:41Z
2020-10-21T10:55:49Z,42.805,6.029,13.2985,4.59998,2470.366,2020-10-21T12:56:44Z
2020-10-21T10:58:53Z,42.805,6.029,13.2982,4.60004,2470.39,2020-10-21T12:59:47Z
2020-10-21T11:01:56Z,42.805,6.029,13.2987,4.59998,2470.366,2020-10-21T13:02:50Z
2020-10-21T11:04:59Z,42.805,6.029,13.2986,4.60017,2470.334,2020-10-21T13:05:53Z
2020-10-21T11:08:02Z,42.805,6.029,13.2979,4.59999,2470.343,2020-10-21T13:08:56Z
2020-10-21T11:11:05Z,42.805,6.029,13.2982,4.60007,2470.343,2020-10-21T13:12:00Z
2020-10-21T11:14:08Z,42.805,6.029,13.2983,4.60009,2470.366,2020-10-21T13:15:03Z
2020-10-21T11:17:11Z,42.805,6.029,13.2985,4.60003,2470.343,2020-10-21T13:18:06Z
2020-10-21T11:20:14Z,42.805,6.029,13.2985,4.59996,2470.357,2020-10-21T13:21:09Z
2020-10-21T11:23:17Z,42.805,6.029,13.2990,4.59999,2470.357,2020-10-21T13:24:12Z
2020-10-21T11:26:21Z,42.805,6.029,13.2982,4.60009,2470.343,2020-10-21T13:27:15Z
2020-10-21T11:29:24Z,42.805,6.029,13.2990,4.60019,2470.366,2020-10-21T13:30:18Z
2020-10-21T11:32:27Z,42.805,6.029,13.2985,4.60010,2470.38,2020-10-21T13:33:21Z
2020-10-21T11:35:30Z,42.805,6.029,13.2986,4.60003,2470.32,2020-10-21T13:36:25Z
2020-10-21T11:38:33Z,42.805,6.029,13.2986,4.60011,2470.343,2020-10-21T13:39:28Z
2020-10-21T11:41:36Z,42.805,6.029,13.2987,4.60010,2470.343,2020-10-21T13:42:31Z
2020-10-21T11:44:39Z,42.805,6.029,13.2987,4.60000,2470.366,2020-10-21T13:45:34Z
2020-10-21T11:47:43Z,42.805,6.029,13.2990,4.60013,2470.334,2020-10-21T13:48:37Z
2020-10-21T11:50:46Z,42.805,6.029,13.2980,4.59996,2470.32,2020-10-21T13:51:40Z
2020-10-21T11:53:49Z,42.805,6.029,13.2986,4.60014,2470.357,2020-10-21T13:54:43Z
2020-10-21T11:56:52Z,42.805,6.029,13.2983,4.60003,2470.32,2020-10-21T13:57:46Z
2020-10-21T11:59:55Z,42.805,6.029,13.2985,4.60003,2470.32,2020-10-21T14:00:50Z
2020-10-21T12:02:58Z,42.805,6.029,13.2983,4.60000,2470.334,2020-10-21T14:03:53Z
2020-10-21T12:06:01Z,42.805,6.029,13.2987,4.60013,2470.343,2020-10-21T14:06:56Z
2020-10-21T12:09:04Z,42.805,6.029,13.2980,4.60007,2470.32,2020-10-21T14:09:59Z
2020-10-21T12:12:08Z,42.805,6.029,13.2982,4.60005,2470.31,2020-10-21T14:13:02Z
2020-10-21T12:15:11Z,42.805,6.029,13.2982,4.60003,2470.32,2020-10-21T14:16:05Z
2020-10-21T12:18:14Z,42.805,6.029,13.2980,4.60003,2470.31,2020-10-21T14:19:08Z
2020-10-21T12:21:17Z,42.805,6.029,13.2983,4.59995,2470.32,2020-10-21T14:22:11Z
2020-10-21T12:24:20Z,42.805,6.029,13.2980,4.60013,2470.32,2020-10-21T14:25:15Z
2020-10-21T12:27:23Z,42.805,6.029,13.2994,4.59999,2470.31,2020-10-21T14:28:18Z
2020-10-21T12:30:26Z,42.805,6.029,13.2981,4.60002,2470.31,2020-10-21T14:31:21Z
2020-10-21T12:33:29Z,42.805,6.029,13.2985,4.60007,2470.31,2020-10-21T14:34:24Z
2020-10-21T12:36:33Z,42.805,6.029,13.2986,4.60001,2470.31,2020-10-21T14:37:27Z
2020-10-21T12:39:36Z,42.805,6.029,13.2986,4.60013,2470.297,2020-10-21T14:40:30Z
2020-10-21T12:42:39Z,42.805,6.029,13.2988,4.59996,2470.287,2020-10-21T14:43:33Z
2020-10-21T12:45:42Z,42.805,6.029,13.2988,4.60005,2470.297,2020-10-21T14:46:37Z
2020-10-21T12:48:45Z,42.805,6.029,13.2980,4.59994,2470.273,2020-10-21T14:49:40Z
2020-10-21T12:51:48Z,42.805,6.029,13.2983,4.60003,2470.297,2020-10-21T14:52:43Z
2020-10-21T12:54:51Z,42.805,6.029,13.2988,4.60021,2470.287,2020-10-21T14:55:46Z
2020-10-21T12:57:54Z,42.805,6.029,13.2984,4.59996,2470.297,2020-10-21T14:58:49Z
2020-10-21T13:00:58Z,42.805,6.029,13.2983,4.59997,2470.273,2020-10-21T15:01:52Z
2020-10-21T13:04:01Z,42.805,6.029,13.2986,4.59998,2470.32,2020-10-21T15:04:55Z
2020-10-21T13:07:04Z,42.805,6.029,13.2983,4.60014,2470.273,2020-10-21T15:07:58Z
2020-10-21T13:10:07Z,42.805,6.029,13.2985,4.60005,2470.273,2020-10-21T15:11:02Z
2020-10-21T13:13:10Z,42.805,6.029,13.2981,4.59998,2470.273,2020-10-21T15:14:05Z
2020-10-21T13:16:13Z,42.805,6.029,13.2986,4.59999,2470.297,2020-10-21T15:17:08Z
2020-10-21T13:19:16Z,42.805,6.029,13.2983,4.60003,2470.297,2020-10-21T15:20:11Z
2020-10-21T13:22:19Z,42.805,6.029,13.2983,4.60006,2470.297,2020-10-21T15:23:14Z
2020-10-21T13:25:23Z,42.805,6.029,13.2989,4.60009,2470.283,2020-10-21T15:26:17Z
2020-10-21T13:28:26Z,42.805,6.029,13.2986,4.60011,2470.31,2020-10-21T15:29:20Z
2020-10-21T13:31:29Z,42.805,6.029,13.2982,4.60005,2470.273,2020-10-21T15:32:23Z
2020-10-21T13:34:32Z,42.805,6.029,13.2990,4.60006,2470.273,2020-10-21T15:35:27Z
2020-10-21T13:37:35Z,42.805,6.029,13.2984,4.59999,2470.273,2020-10-21T15:38:30Z
2020-10-21T13:40:38Z,42.805,6.029,13.2986,4.60001,2470.25,2020-10-21T15:41:33Z
2020-10-21T13:43:41Z,42.805,6.029,13.2981,4.60001,2470.264,2020-10-21T15:44:36Z
2020-10-21T13:46:45Z,42.805,6.029,13.2991,4.60014,2470.297,2020-10-21T15:47:39Z
2020-10-21T13:49:48Z,42.805,6.029,13.2986,4.60014,2470.236,2020-10-21T15:50:42Z
2020-10-21T13:52:51Z,42.805,6.029,13.2983,4.59989,2470.273,2020-10-21T15:53:45Z
2020-10-21T13:55:54Z,42.805,6.029,13.2982,4.59996,2470.287,2020-10-21T15:56:48Z
2020-10-21T13:58:57Z,42.805,6.029,13.2986,4.59988,2470.273,2020-10-21T15:59:52Z
2020-10-21T14:02:00Z,42.805,6.029,13.2983,4.60002,2470.25,2020-10-21T16:02:55Z
2020-10-21T14:05:03Z,42.805,6.029,13.2986,4.59995,2470.25,2020-10-21T16:05:58Z
2020-10-21T14:08:06Z,42.805,6.029,13.2992,4.60001,2470.264,2020-10-21T16:09:01Z
2020-10-21T14:11:10Z,42.805,6.029,13.2979,4.60002,2470.264,2020-10-21T16:12:04Z
2020-10-21T14:14:13Z,42.805,6.029,13.2984,4.59998,2470.297,2020-10-21T16:15:07Z
2020-10-21T14:17:16Z,42.805,6.029,13.2975,4.59999,2470.273,2020-10-21T16:18:10Z
2020-10-21T14:20:19Z,42.805,6.029,13.2985,4.59999,2470.25,2020-10-21T16:21:13Z
2020-10-21T14:23:22Z,42.805,6.029,13.2982,4.60013,2470.24,2020-10-21T16:24:17Z
2020-10-21T14:26:25Z,42.805,6.029,13.2990,4.59996,2470.264,2020-10-21T16:27:20Z
2020-10-21T14:29:28Z,42.805,6.029,13.2986,4.60016,2470.264,2020-10-21T16:30:23Z
2020-10-21T14:32:31Z,42.805,6.029,13.2980,4.60015,2470.25,2020-10-21T16:33:26Z
2020-10-21T14:35:35Z,42.805,6.029,13.2985,4.60004,2470.227,2020-10-21T16:36:29Z
2020-10-21T14:38:38Z,42.805,6.029,13.2976,4.59996,2470.227,2020-10-21T16:39:32Z
2020-10-21T14:41:41Z,42.805,6.029,13.2976,4.59996,2470.264,2020-10-21T16:42:35Z
2020-10-21T14:44:44Z,42.805,6.029,13.2983,4.60009,2470.25,2020-10-21T16:45:39Z
2020-10-21T14:47:47Z,42.805,6.029,13.2992,4.60001,2470.273,2020-10-21T16:48:42Z
2020-10-21T14:50:50Z,42.805,6.029,13.2987,4.60004,2470.264,2020-10-21T16:51:45Z
2020-10-21T14:53:53Z,42.805,6.029,13.2986,4.60003,2470.227,2020-10-21T16:54:48Z
2020-10-21T14:56:56Z,42.805,6.029,13.2979,4.60006,2470.264,2020-10-21T16:57:51Z
2020-10-21T15:00:00Z,42.805,6.029,13.2985,4.60009,2470.283,2020-10-21T17:00:54Z
2020-10-21T15:03:03Z,42.805,6.029,13.2985,4.60008,2470.203,2020-10-21T17:03:57Z